Weather History for Athens, OH

Change the Weather History Date:

Sunday, December 22, 2013

  Actual Average (KPKB) Record (KPKB)
Temperature  
Mean Temperature 60 °F 34 °F  
Max Temperature 69 °F 42 °F 70 °F (1967)
Min Temperature 50 °F 25 °F -13 °F (1989)
Degree Days  
Heating Degree Days 6 32  
Month to date heating degree days 635  
Since 1 July heating degree days 1620  
Cooling Degree Days 0 0  
Month to date cooling degree days 0  
Year to date cooling degree days 955  
Growing Degree Days 10 (Base 50)    
Moisture  
Dew Point 52 °F    
Average Humidity 81    
Maximum Humidity 97    
Minimum Humidity 63    
Precipitation  
Precipitation 0.00 in 0.09 in 0.96 in (2006)
Month to date precipitation 2.24  
Year to date precipitation 40.33  
Sea Level Pressure  
Sea Level Pressure 29.83 in    
Wind  
Wind Speed 11 mph (SSW)    
Max Wind Speed 24 mph    
Max Gust Speed 63 mph    
Visibility 10 miles    
Events Rain    
T = Trace of Precipitation, MM = Missing Value Source: NWS Daily Summary

Daily Weather History Graph

Daily Weather History Graph

Search for Another Location

Airport:

Trip Planner

Search our weather history database for the weather conditions in past years. The results will help you decide how hot, cold, wet, or windy it might be!

Date:

Astronomy

Dec. 22, 2013 Rise Set
Actual Time 7:45 AM EST 5:09 PM EST
Civil Twilight 7:15 AM EST 5:40 PM EST
Nautical Twilight 6:41 AM EST 6:13 PM EST
Astronomical Twilight 6:08 AM EST 6:46 PM EST
Moon 10:19 PM EST 10:42 AM EST
Length of Visible Light 10h 24m
Length of Day
9h 24m
Waning Gibbous, 77% of the Moon is Illuminated
Dec 22
Waning Gibbous
Dec 25
Last Quarter
Jan 1
New
Jan 7
First Quarter
Jan 15
Full

Hourly Weather History & Observations

Time (EST) Temp. Dew Point Humidity Pressure Visibility Wind Dir Wind Speed Gust Speed Precip Events Conditions
12:15 AM 67.5 °F 56.8 °F 69% 29.57 in 10.0 mi South 16.1 mph 26.5 mph N/A   Scattered Clouds
12:35 AM 68.4 °F 56.7 °F 66% 29.57 in 10.0 mi South 13.8 mph 23.0 mph N/A   Mostly Cloudy
12:55 AM 69.1 °F 56.5 °F 64% 29.56 in 10.0 mi South 16.1 mph 24.2 mph N/A   Mostly Cloudy
1:15 AM 69.4 °F 56.5 °F 63% 29.57 in 10.0 mi South 10.4 mph 23.0 mph N/A   Overcast
1:35 AM 60.8 °F 58.5 °F 92% 29.69 in 1.5 mi West 20.7 mph 63.3 mph N/A Rain Rain
1:55 AM 59.0 °F 57.7 °F 96% 29.70 in 10.0 mi WSW 18.4 mph 23.0 mph N/A Rain Light Rain
2:15 AM 59.2 °F 58.1 °F 96% 29.72 in 10.0 mi WSW 13.8 mph 19.6 mph N/A Rain Light Rain
2:35 AM 59.5 °F 58.3 °F 96% 29.75 in 10.0 mi SW 8.1 mph - N/A Rain Light Rain
2:55 AM 59.5 °F 58.3 °F 96% 29.75 in 10.0 mi SSW 5.8 mph - N/A Rain Light Rain
3:15 AM 59.4 °F 58.1 °F 96% 29.75 in 10.0 mi SW 5.8 mph - N/A Rain Light Rain
3:35 AM 59.2 °F 58.1 °F 96% 29.75 in 10.0 mi South 5.8 mph - N/A Rain Light Rain
3:55 AM 59.2 °F 58.1 °F 96% 29.75 in 10.0 mi South 8.1 mph - N/A Rain Light Rain
4:15 AM 59.0 °F 57.7 °F 96% 29.74 in 10.0 mi South 6.9 mph - N/A Rain Light Rain
4:35 AM 59.0 °F 57.7 °F 96% 29.74 in 10.0 mi South 10.4 mph - N/A   Light Drizzle
4:55 AM 58.6 °F 57.6 °F 96% 29.74 in 10.0 mi South 11.5 mph 17.3 mph N/A Rain Light Rain
5:15 AM 58.5 °F 57.4 °F 96% 29.76 in 10.0 mi South 10.4 mph - N/A Rain Light Rain
5:35 AM 58.3 °F 57.2 °F 96% 29.79 in 10.0 mi South 10.4 mph - N/A Rain Rain
5:55 AM 58.1 °F 57.2 °F 97% 29.79 in 10.0 mi South 9.2 mph 16.1 mph N/A Rain Rain
6:15 AM 58.1 °F 56.8 °F 96% 29.79 in 10.0 mi South 10.4 mph 16.1 mph N/A Rain Light Rain
6:35 AM 58.1 °F 56.8 °F 96% 29.76 in 10.0 mi SSE 10.4 mph 18.4 mph N/A Rain Light Rain
6:55 AM 58.1 °F 56.8 °F 96% 29.76 in 10.0 mi SSE 13.8 mph 17.3 mph N/A Rain Light Rain
7:15 AM 57.7 °F 56.7 °F 96% 29.75 in 10.0 mi SSE 18.4 mph 24.2 mph N/A Rain Rain
7:35 AM 57.6 °F 56.5 °F 96% 29.74 in 10.0 mi South 19.6 mph 27.6 mph N/A Rain Light Rain
7:55 AM 57.7 °F 56.5 °F 96% 29.74 in 10.0 mi South 11.5 mph 27.6 mph N/A   Light Drizzle
8:15 AM 58.1 °F 56.3 °F 94% 29.76 in 10.0 mi South 15.0 mph 21.9 mph N/A   Mostly Cloudy
8:35 AM 58.1 °F 55.4 °F 91% 29.75 in 10.0 mi SW 8.1 mph 19.6 mph N/A   Mostly Cloudy
8:55 AM 58.5 °F 55.0 °F 88% 29.77 in 10.0 mi South 6.9 mph - N/A   Mostly Cloudy
9:15 AM 58.5 °F 55.0 °F 88% 29.79 in 10.0 mi SSW 8.1 mph - N/A   Overcast
9:35 AM 59.0 °F 54.9 °F 86% 29.79 in 10.0 mi South 13.8 mph 20.7 mph N/A   Overcast
9:55 AM 59.4 °F 54.7 °F 84% 29.79 in 10.0 mi South 10.4 mph 17.3 mph N/A   Overcast
10:15 AM 59.5 °F 54.5 °F 83% 29.81 in 10.0 mi South 13.8 mph 20.7 mph N/A   Overcast
10:35 AM 59.9 °F 54.3 °F 82% 29.81 in 10.0 mi South 12.7 mph 19.6 mph N/A   Overcast
10:55 AM 59.5 °F 54.0 °F 82% 29.82 in 10.0 mi SSW 12.7 mph 17.3 mph N/A   Overcast
11:15 AM 59.5 °F 54.0 °F 82% 29.82 in 10.0 mi SSW 9.2 mph 18.4 mph N/A   Overcast
11:35 AM 59.5 °F 54.1 °F 82% 29.83 in 10.0 mi SW 9.2 mph 17.3 mph N/A   Overcast
11:55 AM 58.6 °F 53.6 °F 83% 29.84 in 7.0 mi WSW 24.2 mph 32.2 mph N/A Rain Light Rain
12:15 PM 56.8 °F 52.0 °F 84% 29.84 in 10.0 mi SW 15.0 mph 24.2 mph N/A   Overcast
12:35 PM 57.2 °F 51.3 °F 81% 29.85 in 7.0 mi SW 10.4 mph 18.4 mph N/A   Overcast
12:55 PM 57.4 °F 51.3 °F 80% 29.85 in 10.0 mi SW 9.2 mph 18.4 mph N/A   Overcast
1:15 PM 57.6 °F 50.7 °F 78% 29.84 in 10.0 mi SW 8.1 mph 18.4 mph N/A   Overcast
1:35 PM 58.1 °F 49.8 °F 74% 29.84 in 10.0 mi SW 10.4 mph 17.3 mph N/A   Scattered Clouds
1:55 PM 58.1 °F 49.1 °F 72% 29.84 in 10.0 mi SW 5.8 mph - N/A   Scattered Clouds
2:15 PM 58.3 °F 48.6 °F 70% 29.85 in 10.0 mi SW 6.9 mph - N/A   Clear
2:35 PM 58.5 °F 47.3 °F 66% 29.84 in 10.0 mi SW 9.2 mph - N/A   Scattered Clouds
2:55 PM 58.5 °F 47.3 °F 66% 29.85 in 10.0 mi SW 8.1 mph - N/A   Mostly Cloudy
3:15 PM 58.5 °F 47.7 °F 67% 29.86 in 10.0 mi SW 5.8 mph - N/A   Overcast
3:35 PM 58.1 °F 47.8 °F 69% 29.86 in 10.0 mi SW 4.6 mph - N/A   Mostly Cloudy
3:55 PM 57.6 °F 48.6 °F 72% 29.86 in 10.0 mi SSW 3.5 mph - N/A   Mostly Cloudy
4:15 PM 57.4 °F 48.7 °F 73% 29.87 in 10.0 mi SW 4.6 mph - N/A   Mostly Cloudy
4:35 PM 57.2 °F 49.1 °F 74% 29.89 in 10.0 mi SW 3.5 mph - N/A   Overcast
4:55 PM 57.6 °F 48.0 °F 70% 29.89 in 10.0 mi SW 6.9 mph - N/A   Mostly Cloudy
5:15 PM 57.7 °F 45.7 °F 64% 29.90 in 10.0 mi SW 6.9 mph - N/A   Overcast
5:35 PM 57.2 °F 45.3 °F 65% 29.90 in 10.0 mi SW 8.1 mph - N/A   Mostly Cloudy
5:55 PM 56.5 °F 45.0 °F 65% 29.90 in 10.0 mi SW 5.8 mph - N/A   Scattered Clouds
6:15 PM 56.3 °F 45.0 °F 66% 29.91 in 10.0 mi SW 4.6 mph - N/A   Clear
6:35 PM 55.6 °F 45.5 °F 69% 29.91 in 10.0 mi SW 5.8 mph - N/A   Clear
6:55 PM 55.6 °F 45.5 °F 69% 29.93 in 10.0 mi SW 4.6 mph - N/A   Clear
7:15 PM 55.6 °F 45.5 °F 69% 29.94 in 10.0 mi SW 4.6 mph - N/A   Mostly Cloudy
7:35 PM 54.9 °F 45.7 °F 71% 29.92 in 10.0 mi WSW 3.5 mph - N/A   Overcast
7:55 PM 54.0 °F 46.2 °F 75% 29.95 in 10.0 mi WSW 4.6 mph - N/A   Overcast
8:15 PM 53.8 °F 46.0 °F 75% 29.94 in 10.0 mi West 3.5 mph - N/A   Mostly Cloudy
8:35 PM 53.8 °F 45.1 °F 73% 29.95 in 10.0 mi WSW 8.1 mph - N/A   Scattered Clouds
8:55 PM 54.0 °F 44.8 °F 71% 29.97 in 10.0 mi WSW 6.9 mph - N/A   Scattered Clouds
9:15 PM 53.2 °F 44.6 °F 72% 29.96 in 10.0 mi Calm Calm - N/A   Scattered Clouds
9:35 PM 52.7 °F 44.4 °F 73% 29.96 in 10.0 mi West 8.1 mph - N/A   Scattered Clouds
9:55 PM 52.0 °F 44.2 °F 75% 29.96 in 10.0 mi WSW 5.8 mph - N/A   Scattered Clouds
10:15 PM 50.9 °F 44.6 °F 79% 29.95 in 10.0 mi WNW 3.5 mph - N/A   Mostly Cloudy
10:35 PM 50.7 °F 45.0 °F 81% 29.97 in 10.0 mi Calm Calm - N/A   Overcast
10:55 PM 51.8 °F 44.2 °F 75% 29.97 in 10.0 mi Calm Calm - N/A   Overcast
11:15 PM 51.4 °F 44.8 °F 78% 29.99 in 10.0 mi SSW 3.5 mph - N/A   Light Drizzle
11:35 PM 51.6 °F 45.0 °F 78% 29.99 in 10.0 mi SSW 6.9 mph - N/A Rain Light Rain
11:55 PM 50.9 °F 45.5 °F 82% 29.99 in 10.0 mi SSW 3.5 mph - N/A   Light Drizzle